TimeCST,TemperatureF,Dew PointF,Humidity,Sea Level PressureIn,VisibilityMPH,Wind Direction,Wind SpeedMPH,Gust SpeedMPH,PrecipitationIn,Events,Conditions,WindDirDegrees,DateUTC
12:15 AM,27.1,24.1,88,29.93,10.0,Calm,Calm,-,N/A,,Clear,0,2013-01-08 06:15:00
12:35 AM,26.6,22.6,85,29.93,10.0,Calm,Calm,-,N/A,,Clear,0,2013-01-08 06:35:00
12:55 AM,27.3,23.7,86,29.92,10.0,SSW,5.8,-,N/A,,Clear,200,2013-01-08 06:55:00
1:15 AM,26.6,22.5,84,29.93,10.0,SSW,3.5,-,N/A,,Clear,200,2013-01-08 07:15:00
1:35 AM,27.9,23.7,84,29.93,10.0,SSW,3.5,-,N/A,,Clear,200,2013-01-08 07:35:00
1:55 AM,26.4,22.5,85,29.92,10.0,SSW,5.8,-,N/A,,Clear,200,2013-01-08 07:55:00
2:15 AM,28.2,23.9,84,29.93,10.0,SSW,6.9,-,N/A,,Clear,200,2013-01-08 08:15:00
2:35 AM,29.5,25.0,83,29.93,10.0,South,8.1,-,N/A,,Clear,180,2013-01-08 08:35:00
2:55 AM,31.1,26.1,82,29.93,10.0,South,8.1,-,N/A,,Clear,190,2013-01-08 08:55:00
3:15 AM,31.6,26.2,80,29.92,10.0,South,9.2,-,N/A,,Clear,190,2013-01-08 09:15:00
3:35 AM,32.2,26.6,80,29.92,10.0,SSW,9.2,-,N/A,,Clear,200,2013-01-08 09:35:00
3:55 AM,32.0,26.4,80,29.91,10.0,South,9.2,-,N/A,,Clear,190,2013-01-08 09:55:00
4:15 AM,32.5,27.0,80,29.90,10.0,South,11.5,-,N/A,,Clear,190,2013-01-08 10:15:00
4:35 AM,32.9,26.8,78,29.88,10.0,South,13.8,17.3,N/A,,Clear,190,2013-01-08 10:35:00
4:55 AM,32.9,26.6,78,29.88,10.0,South,13.8,-,N/A,,Clear,190,2013-01-08 10:55:00
5:15 AM,32.9,26.6,78,29.88,10.0,South,12.7,-,N/A,,Clear,190,2013-01-08 11:15:00
5:35 AM,33.3,26.6,77,29.88,10.0,SSW,15.0,19.6,N/A,,Clear,200,2013-01-08 11:35:00
5:55 AM,33.4,26.6,76,29.88,10.0,SSW,10.4,-,N/A,,Clear,200,2013-01-08 11:55:00
6:15 AM,33.3,26.4,76,29.88,10.0,SSW,11.5,-,N/A,,Clear,200,2013-01-08 12:15:00
6:35 AM,33.1,26.2,76,29.87,10.0,South,12.7,-,N/A,,Clear,190,2013-01-08 12:35:00
6:55 AM,33.1,26.2,76,29.88,10.0,South,12.7,-,N/A,,Clear,190,2013-01-08 12:55:00
7:15 AM,33.8,26.6,75,29.89,10.0,SSW,10.4,-,N/A,,Clear,200,2013-01-08 13:15:00
7:55 AM,32.4,26.1,78,29.90,10.0,SSW,8.1,-,N/A,,Clear,200,2013-01-08 13:55:00
8:15 AM,32.0,25.7,78,29.90,10.0,South,9.2,-,N/A,,Clear,190,2013-01-08 14:15:00
8:35 AM,32.0,25.7,78,29.91,10.0,South,9.2,-,N/A,,Clear,190,2013-01-08 14:35:00
8:55 AM,32.0,25.7,78,29.91,10.0,South,9.2,-,N/A,,Clear,190,2013-01-08 14:55:00
9:15 AM,33.1,26.4,77,29.91,10.0,South,10.4,-,N/A,,Clear,190,2013-01-08 15:15:00
9:35 AM,34.3,27.0,74,29.91,10.0,South,12.7,-,N/A,,Clear,190,2013-01-08 15:35:00
9:55 AM,35.6,27.3,72,29.91,10.0,South,13.8,-,N/A,,Clear,190,2013-01-08 15:55:00
10:15 AM,37.2,28.2,70,29.91,10.0,South,15.0,-,N/A,,Clear,190,2013-01-08 16:15:00
10:35 AM,38.5,28.4,67,29.90,10.0,South,13.8,21.9,N/A,,Clear,190,2013-01-08 16:35:00
10:55 AM,39.9,28.8,64,29.91,10.0,SSW,12.7,-,N/A,,Clear,200,2013-01-08 16:55:00
11:15 AM,40.8,28.0,60,29.90,10.0,SSW,16.1,23.0,N/A,,Clear,210,2013-01-08 17:15:00
11:35 AM,41.5,28.0,59,29.89,10.0,SSW,18.4,23.0,N/A,,Clear,210,2013-01-08 17:35:00
11:55 AM,41.9,28.6,59,29.88,10.0,SW,17.3,-,N/A,,Clear,220,2013-01-08 17:55:00
12:15 PM,41.9,28.4,59,29.87,10.0,SSW,16.1,-,N/A,,Clear,210,2013-01-08 18:15:00
12:35 PM,42.4,28.0,57,29.87,10.0,SW,15.0,21.9,N/A,,Clear,230,2013-01-08 18:35:00
12:55 PM,43.0,28.2,56,29.86,10.0,SW,17.3,-,N/A,,Clear,220,2013-01-08 18:55:00
1:15 PM,43.0,27.9,55,29.87,10.0,SW,18.4,23.0,N/A,,Clear,230,2013-01-08 19:15:00
1:35 PM,42.8,28.4,57,29.88,10.0,SW,15.0,-,N/A,,Clear,230,2013-01-08 19:35:00
1:55 PM,43.0,28.4,56,29.88,10.0,SW,15.0,19.6,N/A,,Clear,230,2013-01-08 19:55:00
2:15 PM,43.2,28.8,57,29.89,10.0,WSW,13.8,18.4,N/A,,Clear,240,2013-01-08 20:15:00
2:35 PM,43.2,28.8,57,29.90,10.0,SW,13.8,-,N/A,,Clear,230,2013-01-08 20:35:00
2:55 PM,43.2,29.5,59,29.91,-9999.0,SW,11.5,-,0.03,,Clear,230,2013-01-08 20:55:00
3:15 PM,-9999,-9999,N/A,-9999,-9999.0,North,-9999.0,-,N/A,,Unknown,0,2013-01-08 21:15:00
3:35 PM,43.2,30.0,60,29.93,10.0,WSW,11.5,-,N/A,,Clear,240,2013-01-08 21:35:00
3:55 PM,42.8,29.3,59,29.93,10.0,WSW,12.7,-,N/A,,Clear,250,2013-01-08 21:55:00
4:15 PM,41.9,28.2,58,29.94,10.0,WSW,10.4,-,N/A,,Clear,240,2013-01-08 22:15:00
4:35 PM,41.0,28.9,62,29.96,10.0,WSW,8.1,-,N/A,,Clear,250,2013-01-08 22:35:00
4:55 PM,39.2,28.9,67,29.96,10.0,West,9.2,-,N/A,,Clear,260,2013-01-08 22:55:00
5:15 PM,37.4,27.9,68,29.97,10.0,WSW,9.2,-,N/A,,Clear,240,2013-01-08 23:15:00
5:35 PM,37.0,28.4,71,29.99,10.0,WSW,9.2,-,N/A,,Clear,240,2013-01-08 23:35:00
5:55 PM,36.1,28.8,75,30.00,10.0,WSW,5.8,-,N/A,,Clear,240,2013-01-08 23:55:00
6:15 PM,35.4,28.9,77,30.01,10.0,SW,6.9,-,N/A,,Clear,230,2013-01-09 00:15:00
6:35 PM,35.1,28.9,78,30.02,10.0,SW,5.8,-,N/A,,Clear,230,2013-01-09 00:35:00
6:55 PM,34.9,29.1,79,30.03,10.0,SW,5.8,-,N/A,,Clear,220,2013-01-09 00:55:00
7:15 PM,35.2,28.8,77,30.04,10.0,SW,5.8,-,N/A,,Clear,230,2013-01-09 01:15:00
7:35 PM,34.2,28.4,79,30.06,10.0,SW,3.5,-,N/A,,Clear,220,2013-01-09 01:35:00
7:55 PM,34.0,28.2,79,30.06,10.0,WSW,6.9,-,N/A,,Clear,250,2013-01-09 01:55:00
8:15 PM,33.1,27.9,81,30.07,10.0,West,3.5,-,N/A,,Clear,260,2013-01-09 02:15:00
8:35 PM,32.0,27.3,83,30.08,10.0,West,4.6,-,N/A,,Clear,270,2013-01-09 02:35:00
8:55 PM,32.9,27.3,80,30.09,10.0,West,4.6,-,N/A,,Clear,270,2013-01-09 02:55:00
9:15 PM,33.1,27.5,80,30.11,10.0,West,3.5,-,N/A,,Clear,270,2013-01-09 03:15:00
9:35 PM,33.3,27.1,78,30.12,10.0,West,4.6,-,N/A,,Clear,260,2013-01-09 03:35:00
9:55 PM,32.0,26.6,80,30.13,10.0,SW,3.5,-,N/A,,Clear,220,2013-01-09 03:55:00
10:15 PM,32.2,27.1,82,30.14,10.0,Calm,Calm,-,N/A,,Clear,0,2013-01-09 04:15:00
10:35 PM,30.4,25.2,81,30.15,10.0,Calm,Calm,-,N/A,,Clear,0,2013-01-09 04:35:00
10:55 PM,32.0,27.3,83,30.15,10.0,Calm,Calm,-,N/A,,Clear,0,2013-01-09 04:55:00
11:15 PM,30.2,24.8,80,30.15,10.0,SW,4.6,-,N/A,,Clear,230,2013-01-09 05:15:00
11:35 PM,30.2,26.6,86,30.15,10.0,Calm,Calm,-,N/A,,Clear,0,2013-01-09 05:35:00
11:55 PM,29.7,25.3,84,30.16,10.0,Calm,Calm,-,N/A,,Clear,0,2013-01-09 05:55:00